Preview of NWS' New Version of Forecast
This preview is not operational and should not be used for support decisions.

Regional Weather Roundup (RWR)

Issued by National Weather Service (NWS)

                            
000
ASUS43 KTOP 180959
RWRKS 

WEATHER ROUNDUP FOR KANSAS
NATIONAL WEATHER SERVICE GOODLAND KS
500 AM CDT TUE JUN 18 2019

NOTE:  "FAIR" INDICATES FEW OR NO CLOUDS BELOW 12,000 FEET WITH NO
SIGNIFICANT WEATHER AND/OR OBSTRUCTIONS TO VISIBILITY.

KSZ001>006-013>018-027>032-041>047-181100-
NORTHWEST KANSAS
  
CITY           SKY/WX    TMP DP  RH WIND       PRES   REMARKS
GOODLAND       RAIN      59  59 100 CALM      30.01F                  
HAYS           CLOUDY    64  61  90 N7        29.97F                  
HILL CITY      LGT RAIN  64  63  96 E7        29.98F FOG              
RUSSELL        MOCLDY    66  61  84 NW9       29.95F                  
$$

KSZ061>065-074>080-084>089-181100-
SOUTHWEST KANSAS
  
CITY           SKY/WX    TMP DP  RH WIND       PRES   REMARKS
DODGE CITY     CLOUDY    63  62  97 N5        29.96F                  
GARDEN CITY    LGT RAIN  61  61 100 CALM      29.99S                  
GREAT BEND     LGT RAIN  65  63  93 N7        29.96F                  
LIBERAL        LGT RAIN  63  61  93 N5        29.98F                  
$$

KSZ066>073-081>083-090>101-181100-
SOUTHEAST KANSAS
  
CITY           SKY/WX    TMP DP  RH WIND       PRES   REMARKS
CHANUTE        CLEAR     66  63  90 CALM      29.93S FOG              
COFFEYVILLE    CLEAR     67  65  93 NW3       29.90S                  
HUTCHINSON     HVY RAIN  70  66  87 W13       29.96R FOG              
MEDICINE LODGE   N/A     68  65  90 NE10      29.88F                  
NEWTON         CLEAR     68  65  90 SW6       29.95S                  
PARSONS        CLEAR     65  64  97 CALM      29.93S                  
WICHITA INTL   MOCLDY    69  64  84 SW5       29.93F                  
WICHITA JABRA  MOCLDY    69  65  86 SW6       29.94R                  
WICHITA MCCONL PTCLDY    68  65  90 S5        29.94S                  
WINFIELD       CLEAR     68  65  90 CALM      29.94S                  
$$

KSZ007>012-019>026-033>040-048>060-102>105-181100-
NORTHEAST KANSAS
  
CITY           SKY/WX    TMP DP  RH WIND       PRES   REMARKS
CONCORDIA      CLEAR     68  61  78 SW6       29.94S                  
EMPORIA        CLEAR     65  65 100 S3        29.93F                  
LAWRENCE       FOG       64  62  93 CALM      29.93F VSB 1/4          
MANHATTAN      CLEAR     65  63  93 CALM      29.93S                  
OLATHE IND     CLEAR     64  63  96 E6        29.94S FOG              
OLATHE EXE     MOCLDY    65  65 100 CALM      29.94R FOG              
SALINA         CLEAR     68  65  90 S8        29.93S                  
TOPEKA BILLARD CLEAR     66  64  93 N3        29.94R FOG              
TOPEKA FORBES  CLEAR     64  62  93 CALM      29.94R FOG              
$$